Regional Weather Roundup
Issued by NWS Charleston, SC

Current Version | Previous Version | Graphics & Text | Print | Product List | Glossary On
Versions: 1 2 3 4 5 6 7 8 9 10 11 12 13 14 15 16 17 18 19 20 21 22 23 24 25 26 27 28 29 30 31 32 33 34 35 36 37 38 39 40 41 42 43 44 45 46 47 48 49 50
734 ASUS42 KCHS 191412 RWRCHS REGIONAL WEATHER ROUNDUP NATIONAL WEATHER SERVICE CHARLESTON SC 1000 AM EDT SAT AUG 19 2017 NOTE: "FAIR" INDICATES FEW OR NO CLOUDS BELOW 12,000 FEET WITH NO SIGNIFICANT WEATHER AND/OR OBSTRUCTIONS TO VISIBILITY. NOT ALL STATIONS ARE QUALITY CONTROLLED. USE DATA WITH CAUTION... ESPECIALLY DEWPOINT OBSERVATIONS. SCZ027-030-031-034>040-042>050-191500- ...SOUTHEAST SOUTH CAROLINA... CITY SKY/WX TMP DP RH WIND PRES REMARKS N CHARLESTON SUNNY 85 76 74 W6 29.96R HX 94 WATERFRONT PRK N/A 84 77 79 VRB2 29.80R HX 94 JOHNS ISLAND FAIR 86 77 74 VRB6 29.96R HX 97 PINOPOLIS N/A 82 77 83 CALM 29.88S HX 91 MONCKS CORNER FAIR 84 75 74 S3 29.95S HX 92 SUMMERVILLE FAIR 84 75 74 W3 29.96S HX 92 BEAUFORT MCAS SUNNY 87 77 72 W5 29.96R HX 99 BEAUFORT ARPT FAIR 84 73 70 SW3 29.96S HX 91 HILTON HEAD IS MOSUNNY 84 77 79 SW6 29.98R HX 94 WALTERBORO SUNNY 82 73 74 W3 29.96F ALLENDALE NOT AVBL ...SOUTHERN MIDLANDS AND PEE DEE... CITY SKY/WX TMP DP RH WIND PRES REMARKS GEORGETOWN FAIR 84 79 84 SW5 29.96R HX 96 KINGSTREE FAIR 84 77 79 CALM 29.94S HX 94 ORANGEBURG SUNNY 86 71 60 SW5 29.96R HX 91 BARNWELL FAIR 86 75 70 CALM 29.96F HX 95 AIKEN FAIR 81 72 74 W5 30.00S MANNING FAIR 84 79 84 SW21 29.95S HX 96 COLUMBIA SUNNY 85 71 63 CALM 29.94S HX 90 SUMTER SUNNY 86 72 62 CALM 29.92S HX 92 FLORENCE SUNNY 86 76 71 VRB3 29.94S HX 96 MYRTLE BEACH SUNNY 86 75 70 S3 29.96R HX 95 N MYRTLE BEACH SUNNY 85 76 74 VRB3 29.94S HX 94 $$ GAZ063-065-086>088-099>101-113>116-118-119-134>141-150-191500- ...SOUTHEAST GEORGIA... CITY SKY/WX TMP DP RH WIND PRES REMARKS SAVANNAH ARPT MOSUNNY 85 76 74 W5 29.98R HX 94 HUNTER AAF LGT RAIN 84 75 74 W3 29.95R HX 92 FORT STEWART MOSUNNY 84 73 69 W3 29.96R HX 91 STATESBORO SUNNY 85 68 56 CALM 29.97S SYLVANIA SUNNY 85 75 70 CALM 29.98S HX 94 CLAXTON FAIR 86 75 68 CALM 29.98S HX 94 ...CSRA...CENTRAL AND FAR SOUTHEAST GEORGIA... CITY SKY/WX TMP DP RH WIND PRES REMARKS THOMSON SUNNY 82 68 63 N6 30.03S AUGUSTA-BUSH SUNNY 85 71 63 VRB3 29.95S HX 90 AUGUSTA-DANIEL SUNNY 85 68 56 NW6 29.97F SWAINSBORO FAIR 82 72 69 NW5 30.00R VIDALIA SUNNY 86 72 62 CALM 29.99S HX 92 EASTMAN FAIR 84 63 48 CALM 30.03R HAZLEHURST FAIR 86 65 50 CALM 29.99S ALMA SUNNY 87 72 60 N5 29.99S HX 93 WAYCROSS PTSUNNY 82 76 81 SW5 30.00S HX 90 JESUP PTSUNNY 84 73 70 CALM 29.99S HX 91 BAXLEY FAIR 82 72 69 CALM 29.99S BRUNSWICK CLOUDY 81 73 78 SW3 30.00S SAINT SIMONS CLOUDY 80 77 90 SW7 29.99R $$ SCZ027-028-034-036>038-045-046-048>050-GAZ119-141-191500- ...LAKE AND SUPPLEMENTAL COASTAL OBSERVATIONS... STATION/POSITION TIME TEMP WIND PRES WAVE SWELL AIR SEA DIR/SP/G HT/PER HT/PER/DIR (UTC) (F) (DEG/KT/KT) (MB) (FT/S) (FT/S/D) WINYAH BAY 1245 83 240/ 6 1014.0 LAKE MURRAY 1320 81 280/ 1/ 2 1013.2S ACE BASIN NERRS 1245 82 240/ 1 1014.0 FORT PULASKI 1348 82 86 210/ 5/ 6 1015.3R SAPELO ISLAND 1300 79 240/ 1 1015.0 $$ ANZ835-935-AMZ111-154-330-350-352-354-370-450-454-472-191500- ...C-MAN AND BUOY OBSERVATIONS... STATION/POSITION TIME TEMP WIND PRES WAVE SWELL AIR SEA DIR/SP/G HT/PER HT/PER/DIR (UTC) (F) (DEG/KT/KT) (MB) (FT/S) (FT/S/D) BUOY 41004 1350 84 84 210/ 10/ 14 1014.3R 3/ 5 2/140/ 8 BUOY 41008 1350 82 85 240/ 10/ 12 1015.0R 2/ 8 2/110/ 8 FOLLY BEACH CMAN 1300 84 220/ 9/ 10 1014.9R CAPERS NEARSHORE 1308 84 85 240/ 10/ 14 1013.9S FRIPP NEARSHORE 1308 82 260/ 8/ 10 1014.1R STATION/POSITION TIME TEMP WIND PRES WAVE SWELL AIR SEA DIR/SP/G HT/PER HT/PER/DIR (UTC) (F) (DEG/KT/KT) (MB) (FT/S) (FT/S/D) 5E ST. MARYS GA 1330 84 N/A 2/ 8 FRYING PAN BUOY 1350 84 84 220/ 12/ 16 1014.4R 4/ 6 2/150/ 8 BUOY 41025 1350 84 84 250/ 16/ 19 1013.6R 6/ 6 CAPE LOOKOUT NC 1300 85 240/ 12/ 15 1013.6R BUOY 41002 1350 84 84 230/ 12/ 16 1016.7R 4/ 6 2/110/ 8 BUOY 41010 1350 85 85 180/ 8/ 10 1016.5R 2/ 8 2/120/ 8 ST AUGUSTINE FL 1400 84 81 250/ 5/ 7 1016.5R $$

USA.gov is the U.S. government's official web portal to all federal, state and local government web resources and services.